Location: Poughquag
(41.6090°N, 73.6820°W)
Time: 21:35:25
(UTC-04:00)

ISS - Visible Passes

Search period start: 16 July 2018 00:00
Search period end: 26 July 2018 00:00
Orbit: 402 x 408 km, 51.6° (Epoch: 17 July)

Date Brightness Start Highest point End Pass type
(mag) Time Alt. Az. Time Alt. Az. Time Alt. Az.
16 Jul -1.3 01:09:47 22° N 01:09:47 22° N 01:11:42 10° NE visible
16 Jul -0.7 02:44:20 10° NW 02:46:14 14° N 02:48:09 10° NE visible
16 Jul -1.1 04:20:59 10° NW 04:23:38 22° NNE 04:26:17 10° ENE visible
17 Jul -1.0 00:19:02 15° NE 00:19:02 15° NE 00:19:46 10° NE visible
17 Jul -0.7 01:51:49 10° NW 01:53:52 15° N 01:55:55 10° NNE visible
17 Jul -0.8 03:29:00 10° NNW 03:31:19 17° NNE 03:33:38 10° ENE visible
18 Jul -0.9 01:00:30 16° NW 01:01:30 18° NNW 01:03:51 10° NNE visible
18 Jul -0.6 02:36:56 10° NNW 02:38:57 15° N 02:40:59 10° NE visible
18 Jul -2.0 04:13:05 10° NW 04:16:10 35° NNE 04:19:14 10° E visible
18 Jul -2.4 22:29:09 10° SW 22:35:07 14° ENE 22:35:41 10° ENE visible
19 Jul -1.3 00:07:06 13° WNW 00:09:10 22° NNW 00:11:51 10° NE visible
19 Jul -0.5 01:44:40 10° NW 01:46:33 14° N 01:48:27 10° NE visible
19 Jul -1.3 03:21:08 10° NW 03:23:54 24° NNE 03:26:41 10° ENE visible
19 Jul -3.8 04:57:21 10° WNW 05:00:36 59° SW 05:03:50 10° SE visible
19 Jul -3.3 21:37:20 10° SSW 21:40:22 36° SE 21:43:25 10° ENE visible
19 Jul -1.9 23:13:54 10° W 23:16:53 31° NNW 23:19:53 10° NE visible
20 Jul -0.6 00:52:10 10° NW 00:54:08 15° N 00:56:06 10° NNE visible
20 Jul -0.9 02:29:08 10° NNW 02:31:34 19° NNE 02:34:01 10° ENE visible
20 Jul -3.6 04:05:13 10° NW 04:08:31 73° NE 04:11:48 10° ESE visible
20 Jul -2.9 22:21:28 10° WSW 22:24:39 50° NNW 22:27:52 10° NE visible
20 Jul -0.7 23:59:31 10° NW 00:01:44 17° NNW 00:03:57 10° NNE visible
21 Jul -0.7 01:37:04 10° NNW 01:39:11 16° N 01:41:18 10° NE visible
21 Jul -2.5 03:13:10 10° NW 03:16:20 41° NNE 03:19:28 10° ESE visible
21 Jul -2.7 04:49:57 10° WNW 04:52:40 24° SW 04:55:24 10° S visible
21 Jul -3.9 21:29:13 10° SW 21:32:29 90° ESE 21:35:47 10° NE visible
21 Jul -1.0 23:06:47 10° WNW 23:09:21 20° NNW 23:11:54 10° NNE visible
22 Jul -0.5 00:44:50 10° NNW 00:46:45 14° N 00:48:40 10° NE visible
22 Jul -1.7 02:21:09 10° NW 02:24:03 27° NNE 02:26:56 10° E visible
22 Jul -3.6 03:57:29 10° WNW 04:00:39 46° SW 04:03:49 10° SSE visible
22 Jul -1.6 22:14:07 10° W 22:16:59 27° NNW 22:19:53 10° NE visible
22 Jul -0.6 23:52:23 10° NW 23:54:18 14° N 23:56:12 10° NNE visible
23 Jul -1.0 01:29:08 10° NW 01:30:48 18° N 01:30:48 18° N visible
23 Jul -2.4 21:21:35 10° W 21:24:42 41° NNW 21:27:51 10° NE visible
23 Jul -0.7 22:59:44 10° NW 23:01:50 16° N 23:03:57 10° NNE visible
24 Jul -0.9 00:37:04 10° NNW 00:39:18 17° NNE 00:39:23 17° NNE visible
24 Jul -0.9 22:06:59 10° WNW 22:09:24 19° NNW 22:11:49 10° NNE visible
24 Jul -0.8 23:44:52 10° NNW 23:46:50 15° N 23:48:26 11° NE visible
25 Jul -1.3 21:14:15 10° WNW 21:17:00 24° NNW 21:19:45 10° NE visible
25 Jul -0.7 22:52:28 10° NW 22:54:21 14° N 22:56:13 10° NE visible
